Location: アルンシュタイン
(50.0000°N, 10.0000°E)
Time: 16:14:23
(UTC+02:00)

Vanguard 1 - Pass Details

Date: 16 September 2024
Orbit: 649 x 3825 km, 34.3° (Epoch: 02 October)

Event Time Altitude Azimuth Distance (km) Brightness Sun altitude
Rises 10:55:56 0° 193° (SSW) 7,079 14.8 34.0°
Reaches altitude 10° 11:06:02 10° 167° (SSE) 5,167 14.8 35.1°
Maximum altitude 11:09:42 11° 152° (SSE) 4,667 14.9 35.5°
Drops below altitude 10° 11:12:55 10° 137° (SE) 4,419 14.8 35.8°
Sets 11:19:12 0° 106° (ESE) 4,658 14.2 36.5°
